Latest Coastal Weather Observations for Coconut Island

IDQ60701

Issued at 2:25 pm EST Saturday 2 August 2014 (issued every 10 minutes, with the page automatically refreshed every 10 minutes)

About coastal observations | Map of coastal stations | Coastal observations for QLD | Marine services | Other Formats
Station Details ID: 027054 Name: COCONUT ISLAND Lat: -10.05 Lon: 143.07 Height: 3.5 m
Data from the previous 72 hours. | See also: Recent months at Coconut Island
Date/Time
EST
Temp

°C
Wind Pressure Rain
since 9am
mm
Weather Cloud Vis
km
Sea
Height
m
Swell
Dir
 
Speed
knots
Gust
knots
hPa Trend Height
m
Period
s
Dir
02/02:00pm 29.9 SE 5 10 1013.0 - 0.0 - - - - - - -
02/01:30pm 30.6 ESE 5 10 1013.6 - 0.0 - - - - - - -
02/01:00pm 30.8 SE 3 8 1013.8 - 0.0 - - - - - - -
02/12:30pm 30.6 SE 3 6 1014.3 - 0.0 - - - - - - -
02/12:00pm 30.6 SE 3 6 1014.8 - 0.0 - - - - - - -
02/11:30am 30.4 SE 3 10 1015.1 - 0.0 - - - - - - -
02/11:00am 30.5 SE 3 7 1015.3 - 0.0 - - - - - - -
02/10:30am 29.9 SE 3 7 1015.4 - 0.0 - - - - - - -
02/10:00am 29.4 SE 4 10 1015.4 - 0.0 - - - - - - -
02/09:30am 28.8 SE 3 7 1015.4 - 0.0 - - - - - - -
02/09:00am 26.8 SE 5 9 1015.5 - 0.0 - - - - - - -
02/08:30am 26.6 SE 3 6 1015.2 - 0.0 - - - - - - -
02/08:00am 25.5 SE 2 5 1015.1 - 0.0 - - - - - - -
02/07:30am 24.4 SE 2 6 1014.8 - 0.0 - - - - - - -
02/07:00am 23.7 SSE 2 5 1014.4 - 0.0 - - - - - - -
02/06:30am 23.6 SE 2 6 1014.2 - 0.0 - - - - - - -
02/06:00am 23.9 SSE 2 6 1014.0 - 0.0 - - - - - - -
02/05:30am 23.8 SSE 2 6 1013.7 - 0.0 - - - - - - -
02/05:00am 24.0 SE 3 7 1013.8 - 0.0 - - - - - - -
02/04:30am 24.1 SE 3 10 1013.6 - 0.0 - - - - - - -
02/04:00am 24.0 SE 3 6 1013.4 - 0.0 - - - - - - -
02/03:30am 23.9 SE 3 8 1013.5 - 0.0 - - - - - - -
02/03:00am 24.1 SE 2 6 1013.8 - 0.0 - - - - - - -
02/02:30am 24.3 SE 4 9 1013.8 - 0.0 - - - - - - -
02/02:00am 24.3 SE 3 7 1013.8 - 0.0 - - - - - - -
02/01:30am 24.3 SE 5 9 1013.9 - 0.0 - - - - - - -
02/01:00am 24.6 SE 4 10 1014.1 - 0.0 - - - - - - -
02/12:30am 24.7 SE 3 6 1014.1 - 0.0 - - - - - - -
02/12:00am 24.6 SSE 2 6 1014.3 - 0.0 - - - - - - -
 
Date/Time
EST
Temp

°C
Wind Pressure Rain
since 9am
mm
Weather Cloud Vis
km
Sea
Height
m
Swell
Dir
 
Speed
knots
Gust
knots
hPa Trend Height
m
Period
s
Dir
01/11:30pm 24.9 SSE 3 7 1014.4 - 0.0 - - - - - - -
01/11:00pm 24.8 SSE 2 5 1014.4 - 0.0 - - - - - - -
01/10:30pm 24.8 SSE 3 7 1014.3 - 0.0 - - - - - - -
01/10:00pm 24.8 SSE 3 7 1014.3 - 0.0 - - - - - - -
01/09:30pm 24.9 SSE 3 6 1014.2 - 0.0 - - - - - - -
01/09:00pm 24.9 SSE 3 6 1014.1 - 0.0 - - - - - - -
01/08:30pm 24.9 SSE 2 6 1013.9 - 0.0 - - - - - - -
01/08:00pm 25.0 SSE 2 4 1013.7 - 0.0 - - - - - - -
01/07:30pm 25.1 SSE 3 6 1013.4 - 0.0 - - - - - - -
01/07:00pm 25.5 SSE 2 5 1013.0 - 0.0 - - - - - - -
01/06:30pm 25.9 SSE 3 7 1012.9 - 0.0 - - - - - - -
01/06:00pm 26.6 SSE 2 4 1012.9 - 0.0 - - - - - - -
01/05:30pm 27.0 SSE 2 5 1012.9 - 0.0 - - - - - - -
01/05:00pm 27.6 SSE 2 6 1012.7 - 0.0 - - - - - - -
01/04:30pm 27.9 SSE 2 4 1012.6 - 0.0 - - - - - - -
01/04:00pm 29.0 SE 3 8 1012.4 - 0.0 - - - - - - -
01/03:30pm 29.4 SE 2 5 1012.2 - 0.0 - - - - - - -
01/03:00pm 30.0 SE 2 5 1012.5 - 0.0 - - - - - - -
01/02:30pm 30.9 SE 3 7 1012.9 - 0.0 - - - - - - -
01/02:00pm 30.5 SE 2 6 1013.2 - 0.0 - - - - - - -
01/01:30pm 30.7 SE 4 8 1013.5 - 0.0 - - - - - - -
01/01:00pm 30.0 SE 3 8 1013.9 - 0.0 - - - - - - -
01/12:30pm 30.9 SE 3 6 1013.9 - 0.0 - - - - - - -
01/12:00pm 30.4 SE 3 7 1014.3 - 0.0 - - - - - - -
01/11:30am 30.2 ESE 3 7 1014.5 - 0.0 - - - - - - -
01/11:00am 30.3 ESE 4 10 1014.7 - 0.0 - - - - - - -
01/10:30am 29.5 ESE 4 11 1014.9 - 0.0 - - - - - - -
01/10:00am 29.1 SE 4 9 1015.0 - 0.0 - - - - - - -
01/09:30am 29.1 SE 4 8 1015.1 - 0.0 - - - - - - -
01/09:00am 27.2 SE 4 8 1014.9 - 0.0 - - - - - - -
01/08:30am 26.4 ESE 4 10 1014.7 - 0.0 - - - - - - -
01/08:00am 25.5 SE 4 9 1014.3 - 0.0 - - - - - - -
01/07:30am 24.1 SE 4 10 1014.1 - 0.0 - - - - - - -
01/07:00am 23.6 SE 4 9 1013.7 - 0.0 - - - - - - -
01/06:30am 23.7 SE 5 10 1013.5 - 0.0 - - - - - - -
01/06:00am 23.9 SE 4 9 1013.3 - 0.0 - - - - - - -
01/05:30am 24.2 SE 6 11 1013.3 - 0.0 - - - - - - -
01/05:00am 24.1 SE 5 12 1013.2 - 0.0 - - - - - - -
01/04:30am 24.1 SE 3 7 1012.9 - 0.0 - - - - - - -
01/04:00am 23.9 ESE 5 10 1012.9 - 0.0 - - - - - - -
01/03:30am 24.1 SE 5 10 1013.0 - 0.0 - - - - - - -
01/03:00am 24.1 SE 4 11 1013.1 - 0.0 - - - - - - -
01/02:30am 24.1 SE 3 8 1013.4 - 0.0 - - - - - - -
01/02:00am 24.1 SE 4 10 1013.7 - 0.0 - - - - - - -
01/01:30am 24.3 SE 3 8 1014.0 - 0.0 - - - - - - -
01/01:00am 24.2 SE 3 6 1014.2 - 0.0 - - - - - - -
01/12:30am 24.2 SE 4 10 1014.5 - 0.0 - - - - - - -
01/12:00am 24.1 SE 3 9 1014.4 - 0.0 - - - - - - -
 
Date/Time
EST
Temp

°C
Wind Pressure Rain
since 9am
mm
Weather Cloud Vis
km
Sea
Height
m
Swell
Dir
 
Speed
knots
Gust
knots
hPa Trend Height
m
Period
s
Dir
31/11:30pm 24.3 SE 4 9 1014.6 - 0.0 - - - - - - -
31/11:00pm 24.6 SSE 3 5 1014.6 - 0.0 - - - - - - -
31/10:30pm 24.7 SE 4 10 1014.7 - 0.0 - - - - - - -
31/10:00pm 24.7 SE 3 9 1014.5 - 0.0 - - - - - - -
31/09:30pm 24.6 SE 2 7 1014.4 - 0.0 - - - - - - -
31/09:00pm 24.4 SSE 3 7 1014.5 - 0.0 - - - - - - -
31/08:30pm 24.4 SE 3 7 1014.1 - 0.0 - - - - - - -
31/08:00pm 25.0 SSE 2 8 1013.7 - 0.0 - - - - - - -
31/07:30pm 24.7 SE 2 9 1013.3 - 0.0 - - - - - - -
31/07:00pm 25.1 SE 2 4 1012.9 - 0.0 - - - - - - -
31/06:30pm 25.4 SSE 2 5 1012.6 - 0.0 - - - - - - -
31/06:00pm 26.2 SSE 3 6 1012.5 - 0.0 - - - - - - -
31/05:30pm 27.0 SSE 2 4 1012.4 - 0.0 - - - - - - -
31/05:00pm 28.5 SE 2 6 1012.3 - 0.0 - - - - - - -
31/04:30pm 28.4 SE 2 5 1012.1 - 0.0 - - - - - - -
31/04:00pm 29.2 SE 3 6 1012.0 - 0.0 - - - - - - -
31/03:30pm 29.8 SE 2 7 1012.0 - 0.0 - - - - - - -
31/03:00pm 30.2 SE 3 9 1012.1 - 0.0 - - - - - - -
31/02:30pm 30.6 SE 4 8 1012.4 - 0.0 - - - - - - -
31/02:00pm 30.2 ESE 6 10 1012.5 - 0.0 - - - - - - -
31/01:30pm 30.0 ESE 5 11 1012.8 - 0.0 - - - - - - -
31/01:00pm 30.6 SE 5 10 1013.3 - 0.0 - - - - - - -
31/12:30pm 29.9 SE 5 9 1013.8 - 0.0 - - - - - - -
31/12:00pm 29.6 SE 4 10 1014.1 - 0.0 - - - - - - -
31/11:30am 29.6 SE 4 9 1014.3 - 0.0 - - - - - - -
31/11:00am 29.1 SE 4 11 1014.6 - 0.0 - - - - - - -
31/10:30am 28.8 SE 4 10 1014.7 - 0.0 - - - - - - -
31/10:00am 28.9 SE 5 11 1014.8 - 0.0 - - - - - - -
31/09:30am 28.4 SE 3 8 1014.9 - 0.0 - - - - - - -
31/09:00am 27.8 SE 4 10 1014.8 - 0.0 - - - - - - -
31/08:30am 26.7 SE 4 12 1014.7 - 0.0 - - - - - - -
31/08:00am 25.0 SE 4 9 1014.6 - 0.0 - - - - - - -
31/07:30am 24.1 SE 4 9 1014.3 - 0.0 - - - - - - -
31/07:00am 23.7 SE 3 9 1014.1 - 0.0 - - - - - - -
31/06:30am 23.9 SSE 3 6 1013.8 - 0.0 - - - - - - -
31/06:00am 24.0 SSE 3 5 1013.7 - 0.0 - - - - - - -
31/05:30am 24.1 SSE 3 8 1013.6 - 0.0 - - - - - - -
31/05:00am 23.9 ESE 4 9 1013.6 - 0.0 - - - - - - -
31/04:30am 24.0 SE 4 9 1013.6 - 0.0 - - - - - - -
31/04:00am 24.2 SE 3 6 1013.6 - 0.0 - - - - - - -
31/03:30am 24.1 ESE 5 9 1013.5 - 0.0 - - - - - - -
31/03:00am 24.3 SE 3 10 1013.8 - 0.0 - - - - - - -
31/02:30am 24.3 SE 3 7 1013.9 - 0.0 - - - - - - -
31/02:00am 24.4 SE 3 9 1014.0 - 0.0 - - - - - - -
31/01:30am 24.5 SE 4 9 1014.0 - 0.0 - - - - - - -
31/01:00am 24.5 SE 6 12 1014.2 - 0.0 - - - - - - -
31/12:30am 24.6 SE 4 10 1014.3 - 0.0 - - - - - - -
31/12:00am 24.6 SE 4 9 1014.3 - 0.0 - - - - - - -
 
Date/Time
EST
Temp

°C
Wind Pressure Rain
since 9am
mm
Weather Cloud Vis
km
Sea
Height
m
Swell
Dir
 
Speed
knots
Gust
knots
hPa Trend Height
m
Period
s
Dir
30/11:30pm 24.4 SSE 3 7 1014.6 - 0.0 - - - - - - -
30/11:00pm 24.6 SE 3 7 1014.6 - 0.0 - - - - - - -
30/10:30pm 24.8 SSE 3 7 1014.7 - 0.0 - - - - - - -
30/10:00pm 24.6 SSE 3 9 1014.8 - 0.0 - - - - - - -
30/09:30pm 24.5 SSE 2 6 1014.8 - 0.0 - - - - - - -
30/09:00pm 24.4 SSE 3 6 1014.6 - 0.0 - - - - - - -
30/08:30pm 24.4 SSE 3 8 1014.3 - 0.0 - - - - - - -
30/08:00pm 24.6 SSE 3 7 1014.1 - 0.0 - - - - - - -
30/07:30pm 24.7 SSE 4 8 1013.7 - 0.0 - - - - - - -
30/07:00pm 24.8 SSE 3 6 1013.3 - 0.0 - - - - - - -
30/06:30pm 25.1 SE 4 7 1013.1 - 0.0 - - - - - - -
30/06:00pm 25.9 SSE 4 8 1012.7 - 0.0 - - - - - - -
30/05:30pm 26.6 SSE 4 9 1012.6 - 0.0 - - - - - - -
30/05:00pm 26.8 SSE 3 5 1012.3 - 0.0 - - - - - - -
30/04:30pm 27.3 SSE 3 7 1012.0 - 0.0 - - - - - - -
30/04:00pm 27.8 SSE 4 9 1012.0 - 0.0 - - - - - - -
30/03:30pm 28.5 SSE 4 9 1012.0 - 0.0 - - - - - - -
30/03:00pm 28.4 SSE 5 11 1012.1 - 0.0 - - - - - - -
30/02:30pm 29.1 SE 5 10 1012.2 - 0.0 - - - - - - -

Other Formats:

Comma delimited format used in spreadsheet applications
http://www.bom.gov.au/fwo/IDQ60701/IDQ60701.94182.axf

JavaScript Object Notation format (JSON) in row-major order
http://www.bom.gov.au/fwo/IDQ60701/IDQ60701.94182.json